N3PL Weather Reports


Display with metric or nautical units.
time (UTC)temp
F
wind
direction
speed
MPH
gust
MPH
rain 1hr
in
rain 24hr
in
rain mn
in
humidity
%
barometer
mb
20260505003554 67 248 0.0 0.0 0.00 0.00 0.00 35 1005.4
20260505003059 67 248 0.0 0.0 0.00 0.00 0.00 35 1005.4
20260505002601 67 248 0.0 0.0 0.00 0.00 0.00 35 1005.4
20260505002103 68 248 0.0 0.0 0.00 0.00 0.00 34 1005.4
20260505001609 68 248 0.0 0.0 0.00 0.00 0.00 34 1005.4
20260505001001 68 248 0.0 0.0 0.00 0.00 0.00 33 1005.2
20260505000558 68 248 0.0 0.0 0.00 0.00 0.00 33 1005.2
20260505000104 68 248 0.0 0.0 0.00 0.00 0.00 33 1005.2
20260504235605 69 248 0.0 0.0 0.00 0.00 0.00 32 1005.1
20260504235001 69 248 0.0 0.0 0.00 0.00 0.00 32 1005.1
20260504234553 69 248 0.0 0.0 0.00 0.00 0.00 31 1005.1
20260504234055 69 248 0.0 0.0 0.00 0.00 0.00 31 1005.2
20260504233559 69 248 0.0 0.0 0.00 0.00 0.00 31 1005.2
20260504233109 69 248 0.0 0.0 0.00 0.00 0.00 31 1005.2
20260504232603 70 248 0.0 0.0 0.00 0.00 0.00 31 1005.2
20260504232003 70 248 0.0 0.0 0.00 0.00 0.00 31 1005.2
20260504231603 70 248 0.0 0.0 0.00 0.00 0.00 31 1005.2
20260504231101 70 287 0.0 0.0 0.00 0.00 0.00 31 1005.2
20260504230604 70 287 0.0 0.0 0.00 0.00 0.00 31 1005.2
20260504230000 70 287 0.0 0.0 0.00 0.00 0.00 31 1005.2
20260504225555 70 287 0.0 0.0 0.00 0.00 0.00 31 1005.3
20260504225103 70 285 0.0 0.0 0.00 0.00 0.00 31 1005.3
20260504224603 70 287 0.0 0.0 0.00 0.00 0.00 31 1005.3
20260504224051 70 287 0.0 0.0 0.00 0.00 0.00 31 1005.2
20260504223552 70 287 0.0 0.0 0.00 0.00 0.00 30 1005.2
20260504223055 70 287 0.0 0.0 0.00 0.00 0.00 30 1005.2
20260504222558 70 287 0.0 0.0 0.00 0.00 0.00 30 1005.4
20260504222049 70 287 0.0 0.0 0.00 0.00 0.00 30 1005.4
20260504221553 70 192 0.0 0.0 0.00 0.00 0.00 29 1005.4
20260504221056 70 192 0.0 0.0 0.00 0.00 0.00 29 1005.4
20260504220605 70 192 0.0 0.0 0.00 0.00 0.00 30 1005.4
20260504220002 70 192 0.0 0.0 0.00 0.00 0.00 29 1005.4
20260504215505 70 174 0.0 0.0 0.00 0.00 0.00 29 1005.6
20260504215057 70 172 0.0 0.0 0.00 0.00 0.00 29 1005.6
20260504214601 71 203 0.0 0.0 0.00 0.00 0.00 30 1005.6
20260504214104 71 189 0.0 0.0 0.00 0.00 0.00 29 1005.6
20260504213505 71 127 0.0 0.0 0.00 0.00 0.00 27 1005.6
20260504213100 71 143 0.0 0.0 0.00 0.00 0.00 28 1005.6
20260504212602 72 184 0.0 0.0 0.00 0.00 0.00 28 1005.5
20260504212107 72 258 0.0 0.0 0.00 0.00 0.00 27 1005.5
20260504211502 72 258 0.0 0.0 0.00 0.00 0.00 28 1005.5
20260504211059 72 260 0.0 0.0 0.00 0.00 0.00 28 1005.4
20260504210601 72 250 0.0 0.0 0.00 0.00 0.00 28 1005.4
20260504210109 72 250 0.0 0.0 0.00 0.00 0.00 28 1005.4
20260504205501 71 250 0.0 0.0 0.00 0.00 0.00 28 1005.4
20260504205054 71 250 0.0 0.0 0.00 0.00 0.00 27 1005.4
20260504204619 71 250 0.0 0.0 0.00 0.00 0.00 28 1005.4
20260504204105 71 196 0.0 0.0 0.00 0.00 0.00 29 1005.6
20260504203501 71 205 0.0 0.0 0.00 0.00 0.00 28 1005.6
20260504203105 71 246 0.0 0.0 0.00 0.00 0.00 27 1005.6
20260504202601 71 246 0.0 0.0 0.00 0.00 0.00 27 1005.8
20260504202107 71 246 0.0 0.0 0.00 0.00 0.00 27 1005.8
20260504201552 70 217 0.0 0.0 0.00 0.00 0.00 28 1005.8
20260504201102 70 336 0.0 0.0 0.00 0.00 0.00 28 1006.0
20260504200601 70 239 0.0 0.0 0.00 0.00 0.00 29 1006.0
20260504200103 70 229 0.0 0.0 0.00 0.00 0.00 29 1006.0
20260504195551 70 229 0.0 0.0 0.00 0.00 0.00 27 1006.2
20260504195055 70 267 0.0 0.0 0.00 0.00 0.00 28 1006.2
20260504194608 70 270 0.0 0.0 0.00 0.00 0.00 29 1006.2
20260504194051 71 258 0.0 0.0 0.00 0.00 0.00 28 1006.3
20260504193554 71 258 0.0 0.0 0.00 0.00 0.00 29 1006.3
20260504193102 70 179 0.0 0.0 0.00 0.00 0.00 30 1006.3
20260504192608 70 323 0.0 0.0 0.00 0.00 0.00 27 1006.5
20260504192055 70 263 0.0 0.0 0.00 0.00 0.00 28 1006.5
20260504191557 70 244 0.0 0.0 0.00 0.00 0.00 27 1006.5
20260504191059 70 244 0.0 0.0 0.00 0.00 0.00 28 1006.6
20260504190606 71 244 0.0 0.0 0.00 0.00 0.00 27 1006.6
20260504190121 71 243 0.0 0.0 0.00 0.00 0.00 28 1006.6
20260504185556 71 244 0.0 0.0 0.00 0.00 0.00 28 1006.8
20260504185058 71 244 0.0 0.0 0.00 0.00 0.00 28 1006.8
20260504184550 70 244 0.0 0.0 0.00 0.00 0.00 28 1006.8
20260504184053 71 114 0.0 0.0 0.00 0.00 0.00 27 1006.9
20260504183559 71 114 0.0 0.0 0.00 0.00 0.00 27 1006.9
20260504183102 72 168 0.0 0.0 0.00 0.00 0.00 27 1006.9
20260504182606 71 99 0.0 0.0 0.00 0.00 0.00 28 1007.2
20260504182004 71 99 0.0 0.0 0.00 0.00 0.00 27 1007.2
20260504181557 71 99 0.0 0.0 0.00 0.00 0.00 27 1007.2
20260504181102 71 240 0.0 0.0 0.00 0.00 0.00 26 1007.5
20260504180606 71 268 0.0 0.0 0.00 0.00 0.00 26 1007.5
20260504180004 71 268 0.0 0.0 0.00 0.00 0.00 26 1007.5
20260504175558 71 268 0.0 0.0 0.00 0.00 0.00 26 1007.7
20260504175058 71 265 0.0 0.0 0.00 0.00 0.00 27 1007.7
20260504174610 70 280 0.0 0.0 0.00 0.00 0.00 27 1007.7
20260504174104 70 280 0.0 0.0 0.00 0.00 0.00 26 1007.8
20260504173609 70 6 0.0 0.0 0.00 0.00 0.00 26 1007.8
20260504173005 70 232 0.0 0.0 0.00 0.00 0.00 27 1007.8
20260504172507 70 167 0.0 0.0 0.00 0.00 0.00 26 1008.0
20260504172010 70 248 0.0 0.0 0.00 0.00 0.00 26 1008.0
20260504171605 70 248 0.0 0.0 0.00 0.00 0.00 27 1008.0
20260504171106 70 244 0.0 0.0 0.00 0.00 0.00 27 1008.2
20260504170505 69 241 0.0 0.0 0.00 0.00 0.00 27 1008.2
20260504151054 65 253 0.0 0.0 0.00 0.00 0.00 35 1009.4
20260504150608 65 253 0.0 0.0 0.00 0.00 0.00 34 1009.4
20260504141101 60 0 0.0 0.0 0.00 0.00 0.00 48 1009.6
20260504140603 59 282 0.0 0.0 0.00 0.00 0.00 50 1009.6
20260504130600 54 209 0.0 0.0 0.00 0.00 0.00 63 1010.1
20260504130104 54 196 0.0 0.0 0.00 0.00 0.00 62 1010.1
20260504110555 43 270 0.0 0.0 0.00 0.00 0.00 84 1010.6
20260504110103 43 270 0.0 0.0 0.00 0.00 0.00 84 1010.6
20260504100605 44 270 0.0 0.0 0.00 0.00 0.00 80 1010.6
20260504081608 48 270 0.0 0.0 0.00 0.00 0.00 61 1010.5
20260504081057 48 270 0.0 0.0 0.00 0.00 0.00 60 1010.6
20260504080559 48 270 0.0 0.0 0.00 0.00 0.00 61 1010.6
20260504060126 48 270 0.0 0.0 0.00 0.00 0.00 57 1010.5
20260504050601 48 270 0.0 0.0 0.00 0.00 0.00 47 1010.6
20260504050116 48 270 0.0 0.0 0.00 0.00 0.00 48 1010.6
20260504045504 48 270 0.0 0.0 0.00 0.00 0.00 47 1010.7
20260504045006 48 270 0.0 0.0 0.00 0.00 0.00 48 1010.7
20260504044604 47 270 0.0 0.0 0.00 0.00 0.00 50 1010.7
20260504044106 47 270 0.0 0.0 0.00 0.00 0.00 51 1010.5
20260504043504 47 270 0.0 0.0 0.00 0.00 0.00 52 1010.5
20260504043006 47 270 0.0 0.0 0.00 0.00 0.00 54 1010.5
20260504042600 47 270 0.0 0.0 0.00 0.00 0.00 53 1010.3
20260504042104 47 270 0.0 0.0 0.00 0.00 0.00 53 1010.3
20260504041500 47 270 0.0 0.0 0.00 0.00 0.00 50 1010.3
20260504041003 47 270 0.0 0.0 0.00 0.00 0.00 52 1010.3
20260504040504 47 270 0.0 0.0 0.00 0.00 0.00 52 1010.3
20260504040007 47 270 0.0 0.0 0.00 0.00 0.00 51 1010.3
20260504035512 47 270 0.0 0.0 0.00 0.00 0.00 52 1010.2
20260504035003 48 270 0.0 0.0 0.00 0.00 0.00 52 1010.2
20260504034506 48 270 0.0 0.0 0.00 0.00 0.00 51 1010.2
20260504034012 48 270 0.0 0.0 0.00 0.00 0.00 51 1010.1
20260504033604 48 270 0.0 0.0 0.00 0.00 0.00 49 1010.1
20260504033108 48 270 0.0 0.0 0.00 0.00 0.00 51 1010.1
20260504032503 48 270 0.0 0.0 0.00 0.00 0.00 50 1010.1
20260504032059 48 270 0.0 0.0 0.00 0.00 0.00 50 1010.1
20260504031605 48 270 0.0 0.0 0.00 0.00 0.00 49 1010.1
20260504031102 49 270 0.0 0.0 0.00 0.00 0.00 50 1010.0
20260504030606 49 270 0.0 0.0 0.00 0.00 0.00 50 1010.0
20260504030052 49 270 0.0 0.0 0.00 0.00 0.00 48 1010.0
20260504025556 49 270 0.0 0.0 0.00 0.00 0.00 47 1010.0
20260504025058 49 270 0.0 0.0 0.00 0.00 0.00 48 1010.0
20260504024548 49 270 0.0 0.0 0.00 0.00 0.00 47 1010.0
20260504024056 49 270 0.0 0.0 0.00 0.00 0.00 46 1010.0
20260504023604 49 270 0.0 0.0 0.00 0.00 0.00 47 1010.0
20260504023051 49 270 0.0 0.0 0.00 0.00 0.00 47 1010.0
20260504022556 49 270 0.0 0.0 0.00 0.00 0.00 49 1010.0
20260504022103 50 270 0.0 0.0 0.00 0.00 0.00 47 1010.0
20260504021550 50 270 0.0 0.0 0.00 0.00 0.00 47 1010.0
20260504021057 50 270 0.0 0.0 0.00 0.00 0.00 46 1010.1
20260504020602 50 270 0.0 0.0 0.00 0.00 0.00 45 1010.1
20260504020106 50 270 0.0 0.0 0.00 0.00 0.00 45 1010.1
20260504015501 50 270 0.0 0.0 0.00 0.00 0.00 44 1009.9
20260504015012 51 270 0.0 0.0 0.00 0.00 0.00 45 1009.9
20260504014603 51 270 0.0 0.0 0.00 0.00 0.00 46 1009.9
20260504014102 51 270 0.0 0.0 0.00 0.00 0.00 45 1009.8
20260504013605 51 270 0.0 0.0 0.00 0.00 0.00 43 1009.8
20260504013005 51 270 0.0 0.0 0.00 0.00 0.00 41 1009.8
20260504012510 51 270 0.0 0.0 0.00 0.00 0.00 42 1009.6
20260504012059 52 270 0.0 0.0 0.00 0.00 0.00 43 1009.6
20260504011602 52 270 0.0 0.0 0.00 0.00 0.00 43 1009.6
20260504011107 52 270 0.0 0.0 0.00 0.00 0.00 41 1009.4
20260504010505 52 270 0.0 0.0 0.00 0.00 0.00 41 1009.4
20260504010114 52 270 0.0 0.0 0.00 0.00 0.00 43 1009.4
20260504005601 53 270 0.0 0.0 0.00 0.00 0.00 42 1009.3
20260504005103 53 270 0.0 0.0 0.00 0.00 0.00 41 1009.3
20260504004606 53 270 0.0 0.0 0.00 0.00 0.00 38 1009.3
20260504004055 54 270 0.0 0.0 0.00 0.00 0.00 36 1009.1